Regional Weather Roundup
Issued by NWS Northern Indiana

Home | Current Version | Previous Version | Graphics & Text | Print | Product List | Glossary On
Versions: 1 2 3 4 5 6 7 8 9 10 11 12 13 14 15 16 17 18 19 20 21 22 23 24 25 26 27 28 29 30 31 32 33 34 35 36 37 38 39 40 41 42 43 44 45 46 47 48 49 50
000
ASUS43 KIWX 250800
RWRIWX

KIWX WEATHER ROUNDUP
NATIONAL WEATHER SERVICE NORTHERN INDIANA
300 AM EST SAT FEB 25 2017

NOTE: "FAIR" INDICATES FEW OR NO CLOUDS BELOW 12,000 FEET WITH NO
SIGNIFICANT WEATHER AND/OR OBSTRUCTIONS TO VISIBILITY.

* THESE STATIONS ARE NOT UNDER NWS QUALITY CONTROL. THEY ALSO MAY NOT
  REPORT WEATHER SUCH AS PRECIPITATION OR FOG.

INZ001>027-250900-
NORTHERN INDIANA

CITY           SKY/WX    TMP DP  RH WIND       PRES   REMARKS
MICHIGAN CITY* CLOUDY    34  34 100 W8        29.59R WCI  27
KNOX*          CLOUDY    36  19  51 W13       29.58S
SOUTH BEND     CLOUDY    35  33  92 W12       29.57R WCI  27
GOSHEN         CLOUDY    40  33  76 W12       29.56S
ANGOLA*        MOCLDY    39  37  93 W7        29.55S
FORT WAYNE     MOCLDY    41  35  79 SW9       29.60R
PERU/GRISSOM   CLOUDY    39  36  88 W16       29.59S

$$
INZ028>050-250900-
CENTRAL INDIANA

CITY           SKY/WX    TMP DP  RH WIND       PRES   REMARKS
LAFAYETTE      CLOUDY    37  32  82 W14G24    29.63R
KOKOMO*        CLOUDY    39  34  82 W22G28    29.62S
MUNCIE*        PTCLDY    42  34  73 SW12      29.63F
INDIANAPOLIS   CLOUDY    40  31  70 W23G31    29.66S

$$
MIZ043>046-050>051-056>058-064>065-071>073-077>080-250900-
SOUTHWEST LOWER MICHIGAN

CITY           SKY/WX    TMP DP  RH WIND       PRES   REMARKS
BATTLE CREEK   CLOUDY    36  32  85 W10       29.54S
BENTON HARBOR  CLOUDY    34  31  88 W8        29.56F WCI  27
COLDWATER*     CLOUDY    38  33  82 W8        29.55F
HILLSDALE*     CLOUDY    36  32  87 W12G20    29.55R
HOLLAND        CLOUDY    32  29  88 W12       29.54S WCI  23
GRAND RAPIDS   LGT SNOW  32  30  92 W14       29.51R FOG     WCI  22
KALAMAZOO      LGT RAIN  35  32  88 W3        29.54F
STURGIS*       CLOUDY    37  34  87 SW7       29.54S
THREE RIVERS*  CLOUDY    37  33  85 W6        29.55S

$$
OHZ001>008-015>018-024>025-250900-
NORTHWEST OHIO

CITY           SKY/WX    TMP DP  RH WIND       PRES   REMARKS
DEFIANCE       CLOUDY    41  34  76 SW8       29.60R
FINDLAY        CLOUDY    44  35  70 W17       29.57F
TOLEDO EXPRESS CLOUDY    43  39  86 W15       29.57R
TOLEDO METCALF CLOUDY    46  41  82 W17       29.57S
LIMA           CLOUDY    42  36  79 W13       29.59F

$$
AND FOR LAKE MICHIGAN COASTAL AND OPEN LAKE BUOY OBSERVATIONS

STATION/POSITION TEMP    WIND        PRES    VSBY  WAVE
                 AIR SEA DIR/SP/G                  HT/PER
                 (F)     (DEG/KT/KT) (MB)    (MI)  (FT/S)
CALUMET HARBOR    32     240/  7/ 13 1002.1R
MICHIGAN CITY     34     240/ 22/ 23   N/A
BURNS HARBOR      35     260/ 18/ 21 1002.7S
SAINT JOSEPH      35     290/ 11/ 13 1001.7

$$
&&



USA.gov is the U.S. government's official web portal to all federal, state and local government web resources and services.